Fulton, NY

4:55 PM EST on December 12, 2017 (GMT -0500)
Oswego County

Weather History for KFZY - March, 2013

Change the Weather History Date:

Friday, March 1, 2013

  Actual Average (KSYR) Record (KSYR)
Temperature  
Mean Temperature 30 °F -  
Max Temperature 33 °F 37 °F 68 °F (2017)
Min Temperature 27 °F 21 °F -8 °F (1980)
Degree Days  
Heating Degree Days 34    
Moisture  
Dew Point 26 °F    
Average Humidity 81    
Maximum Humidity 92    
Minimum Humidity 69    
Precipitation  
Precipitation 0.02 in - - ()
Sea Level Pressure  
Sea Level Pressure 29.79 in    
Wind  
Wind Speed 8 mph (NNW)    
Max Wind Speed 14 mph    
Max Gust Speed 18 mph    
Visibility 7 miles    
Events Snow    
Averages and records for this station are not official NWS values.
T = Trace of Precipitation, MM = Missing Value Source: NWS Daily Summary

Daily Weather History Graph

Daily Weather History Graph

Search for Another Location

Airport or City:

Trip Planner

Search our weather history database for the weather conditions in past years. The results will help you decide how hot, cold, wet, or windy it might be!

Date:

Astronomy

Mar. 01, 2013 Rise Set
Actual Time 6:41 AM EST 5:54 PM EST
Civil Twilight 6:12 AM EST 6:23 PM EST
Nautical Twilight 5:39 AM EST 6:56 PM EST
Astronomical Twilight 5:06 AM EST 7:29 PM EST
Moon 10:35 PM EST (3/1) 8:18 AM EST (3/1)
Length of Visible Light 12h 10m
Length of Day
11h 13m
Waning Gibbous, 83% of the Moon is Illuminated
Mar 1
Waning Gibbous
Mar 4
Last Quarter
Mar 11
New
Mar 19
First Quarter
Mar 27
Full

Hourly Weather History & Observations

Time (EST) Temp. Windchill Dew Point Humidity Pressure Visibility Wind Dir Wind Speed Gust Speed Precip Events Conditions
12:41 AM 33.8 °F 29.6 °F 30.2 °F 87% 29.68 in 2.0 mi NNW 4.6 mph - 0.00 in Snow Light Snow
12:54 AM 33.1 °F 28.7 °F 30.9 °F 92% 29.70 in 2.5 mi NW 4.6 mph - 0.00 in Snow Light Snow
1:09 AM 33.8 °F 28.6 °F 30.2 °F 87% 29.69 in 1.5 mi NW 5.8 mph - 0.01 in Snow Light Snow
1:20 AM 33.8 °F 27.7 °F 30.2 °F 87% 29.69 in 2.0 mi NW 6.9 mph - 0.01 in Snow Light Snow
1:54 AM 33.1 °F 26.1 °F 30.9 °F 92% 29.70 in 3.0 mi NNW 8.1 mph - 0.01 in Snow Light Snow
2:54 AM 33.1 °F 26.1 °F 30.9 °F 92% 29.70 in 4.0 mi NNW 8.1 mph - 0.00 in Snow Light Snow
3:01 AM 33.8 °F 27.0 °F 30.2 °F 87% 29.69 in 1.8 mi NNW 8.1 mph - 0.00 in Snow Light Snow
3:16 AM 33.8 °F 27.0 °F 30.2 °F 87% 29.69 in 3.0 mi NNW 8.1 mph - 0.00 in Snow Light Snow
3:54 AM 33.1 °F 24.9 °F 30.0 °F 89% 29.71 in 8.0 mi NNW 10.4 mph - 0.00 in Snow Light Snow
4:45 AM 33.8 °F 25.3 °F 28.4 °F 81% 29.71 in 6.0 mi NNW 11.5 mph - 0.00 in Snow Light Snow
4:54 AM 33.1 °F 24.4 °F 28.9 °F 85% 29.73 in 7.0 mi NNW 11.5 mph 17.3 mph 0.00 in Snow Light Snow
5:54 AM 32.0 °F 24.2 °F 28.9 °F 88% 29.75 in 7.0 mi NNW 9.2 mph - 0.00 in Snow Light Snow
6:35 AM 32.0 °F 24.8 °F 28.4 °F 87% 29.74 in 9.0 mi NNW 8.1 mph - 0.00 in Snow Light Snow
6:54 AM 32.0 °F 24.2 °F 28.0 °F 85% 29.77 in 8.0 mi NNW 9.2 mph - 0.00 in Snow Light Snow
7:54 AM 32.0 °F 24.8 °F 28.0 °F 85% 29.79 in 10.0 mi NNW 8.1 mph 17.3 mph 0.01 in   Overcast
8:54 AM 32.0 °F 24.8 °F 27.0 °F 82% 29.80 in 4.0 mi North 8.1 mph 17.3 mph 0.00 in Snow Light Snow
9:54 AM 32.0 °F 23.0 °F 27.0 °F 82% 29.80 in 5.0 mi North 11.5 mph - 0.00 in Snow Light Snow
10:25 AM 33.8 °F 26.4 °F 26.6 °F 75% 29.79 in 7.0 mi NNW 9.2 mph - 0.00 in Snow Light Snow
10:54 AM 32.0 °F 22.5 °F 26.1 °F 79% 29.81 in 5.0 mi NNW 12.7 mph - 0.00 in Snow Light Snow
11:54 AM 30.9 °F 21.7 °F 26.1 °F 82% 29.83 in 5.0 mi NNW 11.5 mph - 0.00 in Snow Light Snow
12:01 PM 30.2 °F 21.3 °F 26.6 °F 86% 29.82 in 7.0 mi NNW 10.4 mph - 0.00 in Snow Light Snow
12:54 PM 30.9 °F 20.7 °F 24.1 °F 76% 29.84 in 10.0 mi NW 13.8 mph - 0.00 in   Overcast
1:15 PM 30.2 °F 19.8 °F 24.8 °F 80% 29.82 in 10.0 mi NNW 13.8 mph 18.4 mph 0.00 in Snow Light Snow
1:54 PM 30.0 °F 20.0 °F 24.1 °F 79% 29.84 in 9.0 mi NW 12.7 mph - 0.00 in Snow Light Snow
2:54 PM 30.0 °F 21.1 °F 23.0 °F 75% 29.85 in 10.0 mi NW 10.4 mph - 0.00 in   Overcast
3:54 PM 30.9 °F 21.7 °F 23.0 °F 72% 29.85 in 10.0 mi NW 11.5 mph - 0.00 in   Overcast
4:54 PM 30.9 °F 22.2 °F 23.0 °F 72% 29.86 in 10.0 mi WNW 10.4 mph - N/A   Overcast
5:54 PM 30.9 °F 22.8 °F 23.0 °F 72% 29.87 in 10.0 mi WNW 9.2 mph - N/A   Overcast
6:54 PM 30.9 °F 25.2 °F 23.0 °F 72% 29.88 in 10.0 mi NNW 5.8 mph - N/A   Overcast
7:54 PM 30.9 °F 22.2 °F 21.9 °F 69% 29.89 in 9.0 mi North 10.4 mph - 0.00 in Snow Light Snow
8:54 PM 30.0 °F 22.4 °F 23.0 °F 75% 29.89 in 9.0 mi North 8.1 mph - 0.00 in Snow Light Snow
9:54 PM 28.9 °F 21.9 °F 21.9 °F 75% 29.90 in 8.0 mi North 6.9 mph - 0.00 in Snow Light Snow
10:54 PM 28.0 °F 18.6 °F 21.9 °F 78% 29.90 in 9.0 mi North 10.4 mph - 0.00 in Snow Light Snow
11:18 PM 28.4 °F 20.4 °F 21.2 °F 74% 29.88 in 9.0 mi North 8.1 mph - 0.00 in Snow Light Snow
11:54 PM 27.0 °F 20.5 °F 21.0 °F 78% 29.89 in 8.0 mi NNW 5.8 mph - 0.00 in Snow Light Snow